{"data":{"norad_id":58288,"intl_designator":"2023-174AJ","name":"ICEYE-X31","alt_names":[],"object_type":"PAYLOAD","status":"ACTIVE","operator":null,"country":"FIN","launch_date":"2023-11-11","launch_site_code":"AFWTR","launch_vehicle":null,"mission":null,"orbit_class":"UNKNOWN","rcs_meters":null,"size_class":null,"mass_kg":null,"dimensions":null,"purposes":[],"wikipedia_slug":null,"has_3d_model":false,"image_url":null,"decayed_at":null,"tle_current":{"epoch":"2026-09-21T23:01:31.328832Z","epoch_age_seconds":113209,"freshness":"FRESH","line1":"1 58288U 23174AJ  26264.95939038  .00012446  00000+0  34433-3 0  9990","line2":"2 58288  97.3706 340.8295 0001689  10.5575 349.5704 15.37147929159604","mean_motion":15.37147929,"eccentricity":0.0001689,"inclination_deg":97.3706,"raan_deg":340.8295,"arg_perigee_deg":10.5575,"mean_anomaly_deg":349.5704,"bstar":0.00034433,"rev_number":15960,"period_min":93.67998829734,"perigee_km":453.3939453291,"apogee_km":455.70202631731,"semimajor_km":6832.6849858232,"source":"CELESTRAK","updated_at":"2026-09-22T09:00:26.577051Z"}}}